Location: Newark
(7.0858°N, 171.3717°E)
Time: 15:12:06
(UTC+00:00)

X-37B - Pass Details

Date: 05 October 2021
Orbit: 385 x 389 km, 45.0° (Epoch: 13 October)

Event Time Altitude Azimuth Distance (km) Brightness Sun altitude
Rises 07:39:34 0° 203° (SSW) 2,254 4.8 -19.6°
Reaches altitude 10° 07:41:52 10° 189° (S) 1,399 3.5 -20.1°
Enters shadow 07:42:32 14° 181° (S) 1,184 3.0 -20.3°
